Location: *
(51.1248°S, 108.4023°W)
Time: 21:44:16
(UTC+00:00)

Cosmos 2263 Rocket - Pass Details

Date: 15 June 2021
Orbit: 822 x 850 km, 71.0° (Epoch: 04 August)

Event Time Altitude Azimuth Distance (km) Brightness Sun altitude
Exits shadow 13:23:37 - 198° (SSW) 2,688 4.5 -16.5°
Reaches altitude 10° 13:24:25 10° 193° (SSW) 2,470 4.3 -16.4°
Maximum altitude 13:28:30 20° 146° (SE) 1,856 4.2 -15.8°
Drops below altitude 10° 13:32:34 10° 99° (E) 2,450 5.6 -15.2°
Sets 13:35:41 0° 82° (E) 3,376 7.1 -14.7°
